www.cux-wetter.de
Wetterdaten: Dienstag, 22.05.2012
Datum Zeit Temp. A. Feuchte A. Luftdruck Regen Wind Richtung Richtung Sonnenschein Solar Taupunkt Windchill Windben
22.05.2012 00:00 17,9 C 80 % 1003,5 hPa 0,0 l/m 8,3 km/h (2 Bft) S-SO 165 0 min 0 W/m 14,4 C 17,0 C 8,3 km/h (2 Bft)
22.05.2012 00:16 17,7 C 80 % 1003,5 hPa 0,0 l/m 8,3 km/h (2 Bft) S-SO 165 0 min 0 W/m 14,2 C 16,8 C 8,3 km/h (2 Bft)
22.05.2012 00:30 17,5 C 80 % 1003,5 hPa 0,0 l/m 8,3 km/h (2 Bft) S-SO 165 0 min 0 W/m 14,0 C 16,6 C 8,3 km/h (2 Bft)
22.05.2012 00:45 17,3 C 80 % 1003,5 hPa 0,0 l/m 8,3 km/h (2 Bft) S-SO 165 0 min 0 W/m 13,8 C 16,4 C 8,3 km/h (2 Bft)
22.05.2012 01:00 17,2 C 81 % 1003,5 hPa 0,0 l/m 8,3 km/h (2 Bft) S-SO 165 0 min 0 W/m 13,9 C 16,3 C 8,3 km/h (2 Bft)
22.05.2012 01:16 17,0 C 81 % 1003,5 hPa 0,0 l/m 8,3 km/h (2 Bft) S-SO 165 0 min 0 W/m 13,7 C 16,1 C 8,3 km/h (2 Bft)
22.05.2012 01:30 17,0 C 81 % 1003,5 hPa 0,0 l/m 8,3 km/h (2 Bft) S-SO 165 0 min 0 W/m 13,7 C 16,1 C 8,3 km/h (2 Bft)
22.05.2012 01:45 16,9 C 81 % 1003,5 hPa 0,0 l/m 8,3 km/h (2 Bft) S-SO 165 0 min 0 W/m 13,6 C 16,0 C 8,3 km/h (2 Bft)
22.05.2012 02:00 17,0 C 81 % 1003,5 hPa 0,0 l/m 8,3 km/h (2 Bft) S-SO 165 0 min 0 W/m 13,7 C 16,1 C 8,3 km/h (2 Bft)
22.05.2012 02:15 16,9 C 81 % 1003,5 hPa 0,0 l/m 8,3 km/h (2 Bft) S-SO 165 0 min 0 W/m 13,6 C 16,0 C 8,3 km/h (2 Bft)
22.05.2012 02:30 16,8 C 81 % 1004,5 hPa 0,0 l/m 8,3 km/h (2 Bft) S-SO 165 0 min 0 W/m 13,5 C 15,8 C 8,3 km/h (2 Bft)
22.05.2012 02:45 16,6 C 81 % 1004,5 hPa 0,0 l/m 8,3 km/h (2 Bft) S-SO 165 0 min 0 W/m 13,3 C 15,6 C 8,3 km/h (2 Bft)
22.05.2012 03:00 16,5 C 81 % 1004,5 hPa 0,0 l/m 8,3 km/h (2 Bft) S-SO 165 0 min 0 W/m 13,2 C 15,5 C 8,3 km/h (2 Bft)
22.05.2012 03:15 16,3 C 81 % 1004,5 hPa 0,0 l/m 8,3 km/h (2 Bft) S-SO 165 0 min 0 W/m 13,0 C 15,3 C 8,3 km/h (2 Bft)
22.05.2012 03:30 16,2 C 82 % 1004,5 hPa 0,0 l/m 8,3 km/h (2 Bft) S-SO 165 0 min 0 W/m 13,1 C 15,2 C 8,3 km/h (2 Bft)
22.05.2012 03:45 16,2 C 82 % 1004,5 hPa 0,0 l/m 8,3 km/h (2 Bft) S-SO 165 0 min 0 W/m 13,1 C 15,2 C 8,3 km/h (2 Bft)
22.05.2012 04:00 16,2 C 83 % 1004,5 hPa 0,0 l/m 8,3 km/h (2 Bft) S-SO 165 0 min 0 W/m 13,3 C 15,2 C 8,3 km/h (2 Bft)
22.05.2012 04:15 16,2 C 83 % 1004,5 hPa 0,0 l/m 8,3 km/h (2 Bft) S-SO 165 0 min 0 W/m 13,3 C 15,2 C 8,3 km/h (2 Bft)
22.05.2012 04:30 16,2 C 83 % 1004,5 hPa 0,0 l/m 8,3 km/h (2 Bft) S-SO 165 0 min 0 W/m 13,3 C 15,2 C 8,3 km/h (2 Bft)
22.05.2012 04:45 16,2 C 83 % 1004,5 hPa 0,0 l/m 8,3 km/h (2 Bft) S-SO 165 0 min 0 W/m 13,3 C 15,2 C 8,3 km/h (2 Bft)
22.05.2012 05:00 16,2 C 83 % 1005,5 hPa 0,0 l/m 8,3 km/h (2 Bft) S-SO 165 0 min 0 W/m 13,3 C 15,2 C 8,3 km/h (2 Bft)
22.05.2012 05:15 16,1 C 83 % 1005,5 hPa 0,0 l/m 8,3 km/h (2 Bft) S-SO 165 0 min 0 W/m 13,2 C 15,1 C 8,3 km/h (2 Bft)
22.05.2012 05:30 15,9 C 83 % 1005,5 hPa 0,0 l/m 9,1 km/h (2 Bft) O 90 0 min 0 W/m 13,0 C 14,5 C 9,1 km/h (2 Bft)
22.05.2012 05:45 15,8 C 83 % 1005,5 hPa 0,0 l/m 8,1 km/h (2 Bft) O-SO 115 0 min 0 W/m 12,9 C 14,9 C 8,1 km/h (2 Bft)
22.05.2012 06:00 15,7 C 83 % 1005,5 hPa 0,0 l/m 7,9 km/h (2 Bft) SO 135 0 min 0 W/m 12,8 C 14,9 C 7,9 km/h (2 Bft)
22.05.2012 06:15 15,8 C 84 % 1005,5 hPa 0,0 l/m 4,8 km/h (1 Bft) O-SO 105 0 min 0 W/m 13,1 C 15,8 C 4,8 km/h (1 Bft)
22.05.2012 06:30 15,8 C 84 % 1005,5 hPa 0,0 l/m 10,3 km/h (2 Bft) SO 145 0 min 0 W/m 13,1 C 13,9 C 10,3 km/h (2 Bft)
22.05.2012 06:45 15,9 C 84 % 1005,5 hPa 0,0 l/m 9,3 km/h (2 Bft) SO 125 0 min 0 W/m 13,2 C 14,4 C 9,3 km/h (2 Bft)
22.05.2012 07:01 16,1 C 83 % 1005,5 hPa 0,0 l/m 14,3 km/h (3 Bft) O-SO 105 0 min 0 W/m 13,2 C 12,7 C 14,3 km/h (3 Bft)
22.05.2012 07:15 16,3 C 83 % 1006,5 hPa 0,0 l/m 9,3 km/h (2 Bft) O-NO 65 0 min 0 W/m 13,4 C 14,9 C 9,3 km/h (2 Bft)
22.05.2012 07:31 16,8 C 82 % 1006,5 hPa 0,0 l/m 14,6 km/h (3 Bft) SO 135 0 min 0 W/m 13,7 C 13,5 C 14,6 km/h (3 Bft)
22.05.2012 07:45 16,9 C 82 % 1006,5 hPa 0,0 l/m 13,1 km/h (3 Bft) S-SO 165 0 min 0 W/m 13,8 C 14,1 C 13,1 km/h (3 Bft)
22.05.2012 08:00 17,1 C 82 % 1006,5 hPa 0,0 l/m 13,2 km/h (3 Bft) SO 145 0 min 0 W/m 14,0 C 14,3 C 13,2 km/h (3 Bft)
22.05.2012 08:16 17,2 C 81 % 1006,5 hPa 0,0 l/m 11,5 km/h (2 Bft) O-SO 105 0 min 0 W/m 13,9 C 15,0 C 11,5 km/h (2 Bft)
22.05.2012 08:30 17,5 C 81 % 1006,5 hPa 0,0 l/m 13,8 km/h (3 Bft) SO 125 0 min 0 W/m 14,2 C 14,6 C 13,8 km/h (3 Bft)
22.05.2012 08:45 17,8 C 81 % 1006,5 hPa 0,0 l/m 8,3 km/h (2 Bft) O-SO 110 0 min 0 W/m 14,5 C 16,9 C 8,3 km/h (2 Bft)
22.05.2012 09:00 18,1 C 80 % 1006,5 hPa 0,0 l/m 14,9 km/h (3 Bft) O-SO 115 0 min 0 W/m 14,6 C 15,0 C 14,9 km/h (3 Bft)
22.05.2012 09:15 18,3 C 81 % 1007,5 hPa 0,0 l/m 15,9 km/h (3 Bft) SO 125 0 min 0 W/m 15,0 C 15,0 C 15,9 km/h (3 Bft)
22.05.2012 09:30 18,7 C 81 % 1007,5 hPa 0,0 l/m 14,3 km/h (3 Bft) SO 135 0 min 0 W/m 15,4 C 15,9 C 14,3 km/h (3 Bft)
22.05.2012 09:45 19,2 C 80 % 1007,5 hPa 0,0 l/m 12,0 km/h (2 Bft) O-SO 105 0 min 0 W/m 15,7 C 17,1 C 12,0 km/h (2 Bft)
22.05.2012 10:00 19,6 C 80 % 1007,5 hPa 0,0 l/m 10,5 km/h (2 Bft) SO 125 0 min 0 W/m 16,1 C 18,0 C 10,5 km/h (2 Bft)
22.05.2012 10:15 20,2 C 77 % 1007,5 hPa 0,0 l/m 12,4 km/h (2 Bft) O-SO 115 0 min 0 W/m 16,0 C 18,1 C 12,4 km/h (2 Bft)
22.05.2012 10:30 20,5 C 75 % 1007,5 hPa 0,0 l/m 10,7 km/h (2 Bft) SO 135 0 min 0 W/m 15,9 C 19,0 C 10,7 km/h (2 Bft)
22.05.2012 10:45 21,0 C 75 % 1007,5 hPa 0,0 l/m 10,7 km/h (2 Bft) SO 135 0 min 0 W/m 16,4 C 19,5 C 10,7 km/h (2 Bft)
22.05.2012 11:00 21,6 C 76 % 1008,5 hPa 0,0 l/m 11,5 km/h (2 Bft) O-SO 115 0 min 0 W/m 17,2 C 20,0 C 11,5 km/h (2 Bft)
22.05.2012 11:15 22,9 C 71 % 1008,5 hPa 0,0 l/m 12,3 km/h (2 Bft) O 80 0 min 0 W/m 17,4 C 21,3 C 12,3 km/h (2 Bft)
22.05.2012 11:30 22,8 C 70 % 1008,5 hPa 0,0 l/m 2,7 km/h (1 Bft) O-NO 70 0 min 0 W/m 17,0 C 22,8 C 2,7 km/h (1 Bft)
22.05.2012 11:45 23,6 C 70 % 1008,5 hPa 0,0 l/m 13,5 km/h (3 Bft) O-NO 60 0 min 0 W/m 17,8 C 21,9 C 13,5 km/h (3 Bft)
22.05.2012 12:00 24,2 C 69 % 1008,5 hPa 0,0 l/m 13,5 km/h (3 Bft) O-NO 60 0 min 0 W/m 18,1 C 22,6 C 13,5 km/h (3 Bft)
22.05.2012 12:15 24,1 C 69 % 1008,5 hPa 0,0 l/m 13,5 km/h (3 Bft) O-NO 75 0 min 0 W/m 18,0 C 22,5 C 13,5 km/h (3 Bft)
22.05.2012 12:30 23,9 C 69 % 1008,5 hPa 0,0 l/m 13,5 km/h (3 Bft) O-NO 75 0 min 0 W/m 17,9 C 22,2 C 13,5 km/h (3 Bft)
22.05.2012 12:45 24,3 C 69 % 1008,5 hPa 0,0 l/m 11,9 km/h (2 Bft) O-NO 65 0 min 0 W/m 18,2 C 23,0 C 11,9 km/h (2 Bft)
22.05.2012 13:00 25,2 C 67 % 1008,5 hPa 0,0 l/m 12,0 km/h (2 Bft) O-NO 60 0 min 0 W/m 18,6 C 24,0 C 12,0 km/h (2 Bft)
22.05.2012 13:15 25,6 C 64 % 1008,5 hPa 0,0 l/m 10,5 km/h (2 Bft) NO 45 0 min 0 W/m 18,3 C 24,7 C 10,5 km/h (2 Bft)
22.05.2012 13:30 25,5 C 65 % 1009,5 hPa 0,0 l/m 7,9 km/h (2 Bft) O-NO 60 0 min 0 W/m 18,4 C 25,1 C 7,9 km/h (2 Bft)
22.05.2012 13:45 25,0 C 66 % 1009,5 hPa 0,0 l/m 7,9 km/h (2 Bft) O-NO 60 0 min 0 W/m 18,2 C 24,6 C 7,9 km/h (2 Bft)
22.05.2012 14:00 25,2 C 65 % 1009,5 hPa 0,0 l/m 7,9 km/h (2 Bft) O-NO 60 0 min 0 W/m 18,1 C 24,8 C 7,9 km/h (2 Bft)
22.05.2012 14:15 25,6 C 62 % 1009,5 hPa 0,0 l/m 12,0 km/h (2 Bft) NO 35 0 min 0 W/m 17,8 C 24,5 C 12,0 km/h (2 Bft)
22.05.2012 14:30 25,9 C 63 % 1009,5 hPa 0,0 l/m 12,1 km/h (2 Bft) O-NO 65 0 min 0 W/m 18,3 C 24,8 C 12,1 km/h (2 Bft)
22.05.2012 14:45 26,6 C 62 % 1009,5 hPa 0,0 l/m 12,9 km/h (3 Bft) NO 55 0 min 0 W/m 18,7 C 25,5 C 12,9 km/h (3 Bft)
22.05.2012 15:00 26,2 C 63 % 1009,5 hPa 0,0 l/m 11,3 km/h (2 Bft) NO 40 0 min 0 W/m 18,6 C 25,3 C 11,3 km/h (2 Bft)
22.05.2012 15:15 26,8 C 62 % 1009,5 hPa 0,0 l/m 13,3 km/h (3 Bft) O 95 0 min 0 W/m 18,9 C 25,7 C 13,3 km/h (3 Bft)
22.05.2012 15:30 26,4 C 62 % 1009,5 hPa 0,0 l/m 16,8 km/h (3 Bft) O 85 0 min 0 W/m 18,5 C 24,8 C 16,8 km/h (3 Bft)
22.05.2012 15:45 25,8 C 61 % 1009,5 hPa 0,0 l/m 9,0 km/h (2 Bft) SO 125 0 min 0 W/m 17,7 C 25,2 C 9,0 km/h (2 Bft)
22.05.2012 16:00 25,8 C 62 % 1009,5 hPa 0,0 l/m 9,5 km/h (2 Bft) SO 135 0 min 0 W/m 18,0 C 25,1 C 9,5 km/h (2 Bft)
22.05.2012 16:15 25,9 C 60 % 1010,5 hPa 0,0 l/m 13,0 km/h (3 Bft) O 100 0 min 0 W/m 17,5 C 24,7 C 13,0 km/h (3 Bft)
22.05.2012 16:30 26,1 C 60 % 1010,5 hPa 0,0 l/m 13,1 km/h (3 Bft) SO 130 0 min 0 W/m 17,7 C 24,9 C 13,1 km/h (3 Bft)
22.05.2012 16:45 25,8 C 61 % 1010,5 hPa 0,0 l/m 10,1 km/h (2 Bft) O 80 0 min 0 W/m 17,7 C 25,0 C 10,1 km/h (2 Bft)
22.05.2012 17:00 25,7 C 62 % 1010,5 hPa 0,0 l/m 12,4 km/h (2 Bft) O-NO 70 0 min 0 W/m 17,9 C 24,5 C 12,4 km/h (2 Bft)
22.05.2012 17:15 25,4 C 63 % 1010,5 hPa 0,0 l/m 18,1 km/h (3 Bft) O-NO 60 0 min 0 W/m 17,8 C 23,4 C 18,1 km/h (3 Bft)
22.05.2012 17:30 24,9 C 65 % 1010,5 hPa 0,0 l/m 18,5 km/h (3 Bft) O-NO 60 0 min 0 W/m 17,9 C 22,7 C 18,5 km/h (3 Bft)
22.05.2012 17:45 24,9 C 65 % 1011,5 hPa 0,0 l/m 17,2 km/h (3 Bft) O 80 0 min 0 W/m 17,9 C 22,9 C 17,2 km/h (3 Bft)
22.05.2012 18:00 24,9 C 65 % 1011,5 hPa 0,0 l/m 18,6 km/h (3 Bft) NO 35 0 min 0 W/m 17,9 C 22,7 C 18,6 km/h (3 Bft)
22.05.2012 18:15 25,1 C 65 % 1011,5 hPa 0,0 l/m 17,8 km/h (3 Bft) O 80 0 min 0 W/m 18,0 C 23,1 C 17,8 km/h (3 Bft)
22.05.2012 18:30 24,7 C 66 % 1011,5 hPa 0,0 l/m 16,5 km/h (3 Bft) N 360 0 min 0 W/m 17,9 C 22,7 C 16,5 km/h (3 Bft)
22.05.2012 18:45 24,3 C 68 % 1011,5 hPa 0,0 l/m 16,0 km/h (3 Bft) N-NO 20 0 min 0 W/m 18,0 C 22,3 C 16,0 km/h (3 Bft)
22.05.2012 19:00 24,0 C 68 % 1011,5 hPa 0,0 l/m 15,6 km/h (3 Bft) O-NO 70 0 min 0 W/m 17,7 C 22,0 C 15,6 km/h (3 Bft)
22.05.2012 19:15 23,6 C 68 % 1011,5 hPa 0,0 l/m 14,4 km/h (3 Bft) NO 55 0 min 0 W/m 17,3 C 21,7 C 14,4 km/h (3 Bft)
22.05.2012 19:31 23,1 C 69 % 1011,5 hPa 0,0 l/m 23,0 km/h (4 Bft) N 355 0 min 0 W/m 17,1 C 19,8 C 23,0 km/h (4 Bft)
22.05.2012 19:45 22,6 C 69 % 1012,5 hPa 0,0 l/m 16,8 km/h (3 Bft) O-NO 65 0 min 0 W/m 16,6 C 20,1 C 16,8 km/h (3 Bft)
22.05.2012 20:00 22,4 C 69 % 1012,5 hPa 0,0 l/m 18,5 km/h (3 Bft) O-SO 115 0 min 0 W/m 16,4 C 19,5 C 18,5 km/h (3 Bft)
22.05.2012 20:16 22,2 C 70 % 1012,5 hPa 0,0 l/m 16,0 km/h (3 Bft) O 100 0 min 0 W/m 16,5 C 19,7 C 16,0 km/h (3 Bft)
22.05.2012 20:30 21,7 C 71 % 1012,5 hPa 0,0 l/m 15,6 km/h (3 Bft) SO 125 0 min 0 W/m 16,2 C 19,2 C 15,6 km/h (3 Bft)
22.05.2012 20:45 21,4 C 72 % 1013,5 hPa 0,0 l/m 17,1 km/h (3 Bft) O-SO 110 0 min 0 W/m 16,1 C 18,5 C 17,1 km/h (3 Bft)
22.05.2012 21:00 20,9 C 73 % 1013,5 hPa 0,0 l/m 22,1 km/h (4 Bft) O 95 0 min 0 W/m 15,9 C 17,0 C 22,1 km/h (4 Bft)
22.05.2012 21:15 20,6 C 73 % 1013,5 hPa 0,0 l/m 17,9 km/h (3 Bft) SO 125 0 min 0 W/m 15,6 C 17,4 C 17,9 km/h (3 Bft)
22.05.2012 21:30 20,3 C 74 % 1013,5 hPa 0,0 l/m 18,1 km/h (3 Bft) S 180 0 min 0 W/m 15,5 C 17,0 C 18,1 km/h (3 Bft)
22.05.2012 21:45 20,1 C 75 % 1014,5 hPa 0,0 l/m 14,6 km/h (3 Bft) S 185 0 min 0 W/m 15,5 C 17,5 C 14,6 km/h (3 Bft)
22.05.2012 22:00 19,8 C 75 % 1014,5 hPa 0,0 l/m 15,8 km/h (3 Bft) SO 130 0 min 0 W/m 15,2 C 16,8 C 15,8 km/h (3 Bft)
22.05.2012 22:15 19,6 C 75 % 1014,5 hPa 0,0 l/m 16,5 km/h (3 Bft) SO 125 0 min 0 W/m 15,0 C 16,4 C 16,5 km/h (3 Bft)
22.05.2012 22:30 19,2 C 76 % 1015,5 hPa 0,0 l/m 16,3 km/h (3 Bft) SO 135 0 min 0 W/m 14,9 C 16,0 C 16,3 km/h (3 Bft)
22.05.2012 22:45 19,1 C 77 % 1015,5 hPa 0,0 l/m 14,9 km/h (3 Bft) SO 130 0 min 0 W/m 15,0 C 16,2 C 14,9 km/h (3 Bft)
22.05.2012 23:00 18,9 C 77 % 1015,5 hPa 0,0 l/m 12,5 km/h (2 Bft) O 100 0 min 0 W/m 14,8 C 16,6 C 12,5 km/h (2 Bft)
22.05.2012 23:15 18,6 C 78 % 1015,5 hPa 0,0 l/m 14,5 km/h (3 Bft) O 80 0 min 0 W/m 14,7 C 15,7 C 14,5 km/h (3 Bft)
22.05.2012 23:30 18,4 C 78 % 1015,5 hPa 0,0 l/m 14,0 km/h (3 Bft) SO 140 0 min 0 W/m 14,5 C 15,6 C 14,0 km/h (3 Bft)
22.05.2012 23:45 18,2 C 78 % 1015,5 hPa 0,0 l/m 16,9 km/h (3 Bft) O 100 0 min 0 W/m 14,3 C 14,6 C 16,9 km/h (3 Bft)
_ Min-Zeit 06:00 16:15 00:00 - 11:30 - - - - 06:00 07:01 11:30
Minimum _ 15,7 C 60 % 1003,5 hPa - 2,7 km/h (1 Bft) - - - - 12,8 C 12,7 C 2,7 km/h (1 Bft)
_ Max-Zeit 15:15 06:15 22:30 00:00 19:31 - - 00:00 00:00 15:15 15:15 19:31
Maximum _ 26,8 C 84 % 1015,5 hPa 0,0 l/m 23,0 km/h
N (4 Bft)
- - 0 min 0 W/m 18,9 C 25,7 C 23,0 km/h
N (4 Bft)
Durchschnitt _ 20,5 C 74 % 1008,6 hPa #0,0 l/m 12,2 km/h (2 Bft) S-SO - #0 min. 0 W/m 15,7 C 18,8 C 12,2 km/h (2 Bft)
copyright by Holger Just